{"data":{"norad_id":57192,"epoch":"2026-05-25T03:49:10.871040Z","epoch_age_seconds":61163,"freshness":"FRESH","line1":"1 57192U 23091AC  26145.15915360  .00009255  00000+0  36831-3 0  9991","line2":"2 57192  97.5081 208.0878 0012014 179.4081 180.7173 15.25423022160771","mean_motion":15.25423022,"eccentricity":0.0012014,"inclination_deg":97.5081,"raan_deg":208.0878,"arg_perigee_deg":179.4081,"mean_anomaly_deg":180.7173,"bstar":0.00036831,"rev_number":16077,"period_min":94.400043740785,"perigee_km":481.26467595048,"apogee_km":497.76627131413,"semimajor_km":6867.6524736323,"source":"CELESTRAK","updated_at":"2026-05-25T13:38:25.532554Z"}}